STARLINK-31690, 59581

Orbit data source: Space-Track

STARLINK-31690, 59581 is a payload satellite owned by SpaceX/Seattle (US) in LEO that was launched on Tue, 23 Apr 2024 UTC via an FALCON 9 launch vehicle from the Air Force Eastern Test Range (AFETR). Payload-class satellites include a variety of spacecraft equipped with specific instruments for various scientific and technological missions. These include communications satellites like Starlink; space stations such as the ISS; scientific satellites like the Hubble; Earth observation satellites from companies like Planet Labs, Umbra, and HawkEye 360; GPS; miniature CubeSats for education and research; and military/defense satellites.

Loading next visibility...
Identifier
59581, 2024-076T
Orbit
LEO
Country
Flag of USUS
Related business
Manufacturer
SpaceX/Seattle
Mission
Operational Commercial Communications
Bus & Motor
STARLINK V2M, Unknown motor
Mass
730 kg wet, ~700 kg dry
Launch date (UTC)
2024-04-23 (1 year ago)
Launch vehicle
FALCON 9
Launch site
Air Force Eastern Test Range (AFETR)
Object type
Payload
Rocket body
Debris
Shape & HBR
Box + 2 Pan, 17.7 m
Radar Cross Section
33.884 m², Large (>1 m²)

Expand to show TLE details & history
Last TLE update: 15 hours ago

TLE from 15 hours ago
0 STARLINK-31690
1 59581U 24076T   25288.85186335  .00001025  00000-0  46751-4 0  9996
2 59581  43.0010 106.7879 0001301 268.6106  91.4596 15.27582937 84364
Epoch: 2025-10-15T20:26Z
TLE epoch observation values (Epoch: 2025-10-15T20:26:40.993Z)
Latitude
-0.00006°
Longitude
135.49703°
Altitude
482.839 km
Speed
7.626 km/s
True Right ascension
07h 07m 09s
True Declination
0° 00' 00"
Sunlit
Object was in daylight at epoch
Visualization orbit readout
Latitude
Unknown
Longitude
Unknown
Altitude
Unknown
Speed
Unknown
Apparent Right ascension
Unknown
Apparent Declination
Unknown
Sunlit
N/A
Visualization observer readout
Local Sidereal Time
06:02:23
Azimuth
Unknown
Elevation
Unknown
Doppler factor
Unknown
Orbital elements
Apogee altitude
485.878 km
Perigee altitude
484.092 km
Semi-major axis
6,863.122 km
Eccentricity
0.00013
Inclination
43.001°
RAAN
106.7879°
Arg. of periapsis
268.6106°
True anomaly
91.4745°
Mean anomaly
91.4596°
Eccentric anomaly
91.46705°
Mean motion
3.81734 °/min
Orbital period
94.31 mins
BSTAR
0.000046751
Loading maneuver chart data...
Computing Atmospheric mass density...
Loading historical data...
Loading historical data...
Loading historical data...
Loading historical data...
Loading historical data...
Loading historical data...
Loading historical data...

Documentation

Showing up to 5 results
|